TimeCDT,TemperatureF,Dew PointF,Humidity,Sea Level PressureIn,VisibilityMPH,Wind Direction,Wind SpeedMPH,Gust SpeedMPH,PrecipitationIn,Events,Conditions,WindDirDegrees,DateUTC
12:55 AM,70.0,61.2,73,29.67,10.0,SSE,13.8,-,N/A,,Clear,160,2012-10-25 05:55:00
1:55 AM,69.4,61.0,74,29.67,10.0,SSE,12.7,-,N/A,,Clear,160,2012-10-25 06:55:00
2:55 AM,68.4,60.8,77,29.68,10.0,SSE,8.1,-,N/A,,Clear,160,2012-10-25 07:55:00
3:55 AM,68.2,60.4,76,29.68,10.0,SSE,8.1,-,N/A,,Clear,160,2012-10-25 08:55:00
4:55 AM,66.6,59.9,79,29.67,10.0,South,6.9,-,N/A,,Clear,170,2012-10-25 09:55:00
5:55 AM,63.1,58.8,86,29.71,10.0,ESE,5.8,-,N/A,,Clear,120,2012-10-25 10:55:00
6:55 AM,64.2,59.4,84,29.75,10.0,South,3.5,-,N/A,,Partly Cloudy,170,2012-10-25 11:55:00
7:06 AM,62.6,57.2,82,29.79,10.0,NW,21.9,28.8,N/A,,Mostly Cloudy,320,2012-10-25 12:06:00
7:11 AM,62.6,55.4,77,29.79,10.0,NNW,29.9,34.5,N/A,,Mostly Cloudy,330,2012-10-25 12:11:00
7:15 AM,62.6,53.6,72,29.80,10.0,NNW,27.6,34.5,N/A,,Mostly Cloudy,330,2012-10-25 12:15:00
7:38 AM,59.0,50.0,72,29.83,10.0,NNW,27.6,35.7,N/A,,Overcast,340,2012-10-25 12:38:00
7:55 AM,58.8,49.5,71,29.85,10.0,NNW,21.9,31.1,N/A,,Overcast,340,2012-10-25 12:55:00
8:55 AM,54.3,43.3,66,29.92,10.0,North,26.5,39.1,0.01,,Overcast,350,2012-10-25 13:55:00
9:32 AM,53.6,42.8,67,29.97,10.0,North,20.7,33.4,N/A,,Overcast,360,2012-10-25 14:32:00
9:55 AM,53.1,41.5,65,29.98,10.0,North,20.7,32.2,N/A,,Scattered Clouds,360,2012-10-25 14:55:00
10:55 AM,56.7,40.8,55,30.01,10.0,North,18.4,33.4,N/A,,Clear,360,2012-10-25 15:55:00
11:55 AM,56.3,37.6,50,30.03,10.0,North,24.2,38.0,N/A,,Clear,350,2012-10-25 16:55:00
12:55 PM,56.8,36.5,47,30.05,10.0,NNW,18.4,35.7,N/A,,Clear,340,2012-10-25 17:55:00
1:55 PM,57.7,36.9,46,30.05,10.0,North,20.7,33.4,N/A,,Clear,360,2012-10-25 18:55:00
2:55 PM,58.6,37.0,45,30.05,10.0,North,21.9,32.2,N/A,,Clear,10,2012-10-25 19:55:00
3:55 PM,59.2,36.3,43,30.04,10.0,North,20.7,29.9,N/A,,Clear,10,2012-10-25 20:55:00
4:55 PM,59.0,35.6,42,30.06,10.0,North,17.3,28.8,N/A,,Clear,10,2012-10-25 21:55:00
5:55 PM,57.4,35.4,44,30.09,10.0,NNE,17.3,27.6,N/A,,Clear,20,2012-10-25 22:55:00
6:55 PM,54.1,34.9,48,30.11,10.0,NNE,13.8,-,N/A,,Clear,20,2012-10-25 23:55:00
7:55 PM,51.8,35.2,53,30.15,10.0,North,11.5,-,N/A,,Clear,10,2012-10-26 00:55:00
8:55 PM,50.5,34.9,55,30.18,10.0,NNE,15.0,-,N/A,,Clear,20,2012-10-26 01:55:00
9:55 PM,48.6,34.9,59,30.20,10.0,NNE,11.5,-,N/A,,Clear,30,2012-10-26 02:55:00
10:55 PM,48.4,34.0,58,30.22,10.0,NNE,11.5,-,N/A,,Clear,20,2012-10-26 03:55:00
11:55 PM,46.8,33.8,61,30.23,10.0,NNE,11.5,-,N/A,,Clear,30,2012-10-26 04:55:00